CZ-6A DEB, 61429

Orbit data source: Space-Track

CZ-6A DEB, 61429 is space debris in LEO originally from a launch on Tue, 06 Aug 2024 UTC launched from the Taiyaun Space Center, China (TSC). Debris objects in space refer to the collection of defunct objects orbiting the Earth. Examples of debris include non-operational satellites, rocket bodies, and fragments generated from explosions, collisions, or faulty payload assembly.

Loading next visibility...
Identifier
61429, 2024-140YW
Orbit
LEO
Country
Flag of CNCN / PRC
Related business
Manufacturer
SAST
Mission
Spacecraft
Bus & Motor
Unknown
Mass
Unknown
Launch date (UTC)
2024-08-06 (2 years ago)
Launch vehicle
Unknown
Launch site
Taiyaun Space Center, China (TSC)
Object type
Payload
Rocket body
Debris
Shape & HBR
Unknown shape, 0.2 m
Radar Cross Section
Medium (>0.1 m² and <1 m²)

Expand to show TLE details & history
Last TLE update: 1 day ago

TLE from 1 day ago
0 CZ-6A DEB
1 61429U 24140YW  26170.70814783  .00002642  00000-0  71789-3 0  9996
2 61429  88.9628 268.9990 0141519  16.2302 344.3363 14.41487473 95815
Epoch: 2026-06-19T16:59Z
TLE epoch observation values (Epoch: 2026-06-19T16:59:43.972Z)
Latitude
0.00003°
Longitude
106.13254°
Altitude
659.578 km
Speed
7.579 km/s
True Right ascension
17h 55m 59s
True Declination
0° 00' 00"
Sunlit
Object was in full shadow at epoch
Visualization orbit readout
Latitude
Unknown
Longitude
Unknown
Altitude
Unknown
Speed
Unknown
Apparent Right ascension
Unknown
Apparent Declination
Unknown
Sunlit
N/A
Visualization observer readout
Local Sidereal Time
07:20:41
Azimuth
Unknown
Elevation
Unknown
Doppler factor
Unknown
Orbital elements
Apogee altitude
851.392 km
Perigee altitude
649.624 km
Semi-major axis
7,128.645 km
Eccentricity
0.01415
Inclination
88.9628°
RAAN
268.999°
Arg. of periapsis
16.2302°
True anomaly
343.89088°
Mean anomaly
344.3363°
Eccentric anomaly
344.11436°
Mean motion
3.60606 °/min
Orbital period
99.83 mins
BSTAR
0.00071789
Loading maneuver chart data...
Computing Atmospheric mass density...
Loading historical data...
Loading historical data...
Loading historical data...
Loading historical data...
Loading historical data...
Loading historical data...
Loading historical data...

Documentation

Showing up to 5 results
|